Year,Month,Day,Hour,Minute,Value (Times are PST for temperature in C)
2011,05,27,14,05,15.70
2011,05,27,14,06,15.70
2011,05,27,14,07,15.80
2011,05,27,14,08,15.90
2011,05,27,14,09,16.00
2011,05,27,14,10,16.10
2011,05,27,14,11,16.10
2011,05,27,14,12,16.20
2011,05,27,14,13,16.20
2011,05,27,14,14,16.20
2011,05,27,14,15,16.10
2011,05,27,14,16,16.00
2011,05,27,14,17,16.00
2011,05,27,14,18,15.90
2011,05,27,14,19,16.00
2011,05,27,14,20,16.10
2011,05,27,14,21,16.20
2011,05,27,14,22,16.20
2011,05,27,14,23,16.10
2011,05,27,14,24,16.10
2011,05,27,14,25,16.00
2011,05,27,14,26,15.80
2011,05,27,14,27,15.60
2011,05,27,14,28,15.40
2011,05,27,14,29,15.40
2011,05,27,14,30,15.40
2011,05,27,14,31,15.40
2011,05,27,14,32,15.30
2011,05,27,14,33,15.30
2011,05,27,14,34,15.30
2011,05,27,14,35,15.30
2011,05,27,14,36,15.40
2011,05,27,14,37,15.40
2011,05,27,14,38,15.30
2011,05,27,14,39,15.30
2011,05,27,14,40,15.30
2011,05,27,14,41,15.30
2011,05,27,14,42,15.40
2011,05,27,14,43,15.40
2011,05,27,14,44,15.50
2011,05,27,14,45,15.60
2011,05,27,14,46,15.70
2011,05,27,14,47,15.60
2011,05,27,14,48,15.50
2011,05,27,14,49,15.40
2011,05,27,14,50,15.40
2011,05,27,14,51,15.40
2011,05,27,14,52,15.40
2011,05,27,14,53,15.30
2011,05,27,14,54,15.30
2011,05,27,14,55,15.30
2011,05,27,14,56,15.50
2011,05,27,14,57,15.60
2011,05,27,14,58,15.60
2011,05,27,14,59,15.60
2011,05,27,15,00,15.60
2011,05,27,15,01,15.80
2011,05,27,15,02,15.80
2011,05,27,15,03,15.90
2011,05,27,15,04,15.90
2011,05,27,15,05,16.00
2011,05,27,15,06,16.10
2011,05,27,15,07,16.10
2011,05,27,15,08,16.10
2011,05,27,15,09,16.00
2011,05,27,15,10,15.90
2011,05,27,15,11,15.80
2011,05,27,15,12,15.80
2011,05,27,15,13,15.70
2011,05,27,15,14,15.80
2011,05,27,15,15,15.80
2011,05,27,15,16,15.90
2011,05,27,15,17,16.00
2011,05,27,15,18,16.10
2011,05,27,15,19,16.30
2011,05,27,15,20,16.40
2011,05,27,15,21,16.50
2011,05,27,15,22,16.60
2011,05,27,15,23,16.70
2011,05,27,15,24,16.70
2011,05,27,15,25,16.80
2011,05,27,15,26,16.80
2011,05,27,15,27,16.70
2011,05,27,15,28,16.70
2011,05,27,15,29,16.60
2011,05,27,15,30,16.50
2011,05,27,15,31,16.40
2011,05,27,15,32,16.30
2011,05,27,15,33,16.20
2011,05,27,15,34,16.20
2011,05,27,15,35,16.10
2011,05,27,15,36,16.20
2011,05,27,15,37,16.20
2011,05,27,15,38,16.20
2011,05,27,15,39,16.30
2011,05,27,15,40,16.30
2011,05,27,15,41,16.30
2011,05,27,15,42,16.30
2011,05,27,15,43,16.30
2011,05,27,15,44,16.30
2011,05,27,15,45,16.30
2011,05,27,15,46,16.30
2011,05,27,15,47,16.30
2011,05,27,15,48,16.40
2011,05,27,15,49,16.50
2011,05,27,15,50,16.50
2011,05,27,15,51,16.60
2011,05,27,15,52,16.60
2011,05,27,15,53,16.60
2011,05,27,15,54,16.60
2011,05,27,15,55,16.70
2011,05,27,15,56,16.70
2011,05,27,15,57,16.70
2011,05,27,15,58,16.70
2011,05,27,15,59,16.70
2011,05,27,16,00,16.80
2011,05,27,16,01,16.80
2011,05,27,16,02,16.70
2011,05,27,16,03,16.50
2011,05,27,16,04,16.50
2011,05,27,16,05,16.40
2011,05,27,16,06,16.30
2011,05,27,16,07,16.20
2011,05,27,16,08,16.10
2011,05,27,16,09,16.00
2011,05,27,16,10,15.90
2011,05,27,16,11,15.80
2011,05,27,16,12,15.80
2011,05,27,16,13,15.80
2011,05,27,16,14,15.80
2011,05,27,16,15,15.80
2011,05,27,16,16,15.80
2011,05,27,16,17,15.80
2011,05,27,16,18,15.80
2011,05,27,16,19,15.70
2011,05,27,16,20,15.70
2011,05,27,16,21,15.60
2011,05,27,16,22,15.60
2011,05,27,16,23,15.70
2011,05,27,16,24,15.70
2011,05,27,16,25,15.80
2011,05,27,16,26,15.80
2011,05,27,16,27,15.90
2011,05,27,16,28,15.90
2011,05,27,16,29,15.80
2011,05,27,16,30,15.70
2011,05,27,16,31,15.60
2011,05,27,16,32,15.60
2011,05,27,16,33,15.60
2011,05,27,16,34,15.60
2011,05,27,16,35,15.50
2011,05,27,16,36,15.40
2011,05,27,16,37,15.10
2011,05,27,16,38,15.00
2011,05,27,16,39,15.00
2011,05,27,16,40,15.00
2011,05,27,16,41,15.00
2011,05,27,16,42,15.00
2011,05,27,16,43,15.00
2011,05,27,16,44,15.00
2011,05,27,16,45,15.00
2011,05,27,16,46,15.00
2011,05,27,16,47,14.90
2011,05,27,16,48,14.90
2011,05,27,16,49,14.90
2011,05,27,16,50,14.80
2011,05,27,16,51,14.80
2011,05,27,16,52,14.80
2011,05,27,16,53,14.80
2011,05,27,16,54,14.70
2011,05,27,16,55,14.70
2011,05,27,16,56,14.60
2011,05,27,16,57,14.50
2011,05,27,16,58,14.50
2011,05,27,16,59,14.50
2011,05,27,17,00,14.40
2011,05,27,17,01,14.40
2011,05,27,17,02,14.30
2011,05,27,17,03,14.30
2011,05,27,17,04,14.20
2011,05,27,17,05,14.20
2011,05,27,17,06,14.20
2011,05,27,17,07,14.20
2011,05,27,17,08,14.30
2011,05,27,17,09,14.30
2011,05,27,17,10,14.40
2011,05,27,17,11,14.40
2011,05,27,17,12,14.60
2011,05,27,17,13,14.70
2011,05,27,17,14,15.00
2011,05,27,17,15,15.00
2011,05,27,17,16,15.20
2011,05,27,17,17,15.30
2011,05,27,17,18,15.30
2011,05,27,17,19,15.20
2011,05,27,17,20,15.10
2011,05,27,17,21,15.20
2011,05,27,17,22,15.30
2011,05,27,17,23,15.30
2011,05,27,17,24,15.40
2011,05,27,17,25,15.40
2011,05,27,17,26,15.50
2011,05,27,17,27,15.40
2011,05,27,17,28,15.40
2011,05,27,17,29,15.40
2011,05,27,17,30,15.40
2011,05,27,17,31,15.40
2011,05,27,17,32,15.40
2011,05,27,17,33,15.50
2011,05,27,17,34,15.50
2011,05,27,17,35,15.40
2011,05,27,17,36,15.40
2011,05,27,17,37,15.30
2011,05,27,17,38,15.30
2011,05,27,17,39,15.20
2011,05,27,17,40,15.20
2011,05,27,17,41,15.20
2011,05,27,17,42,15.10
2011,05,27,17,43,15.00
2011,05,27,17,44,15.00
2011,05,27,17,45,15.00
2011,05,27,17,46,15.00
2011,05,27,17,47,15.00
2011,05,27,17,48,15.00
2011,05,27,17,49,15.00
2011,05,27,17,50,15.00
2011,05,27,17,51,15.00
2011,05,27,17,52,15.00
2011,05,27,17,53,15.00
2011,05,27,17,54,15.00
2011,05,27,17,55,15.00
2011,05,27,17,56,15.00
2011,05,27,17,57,15.10
2011,05,27,17,58,15.10
2011,05,27,17,59,15.10
2011,05,27,18,00,15.10
2011,05,27,18,01,15.10
2011,05,27,18,02,15.00
2011,05,27,18,03,15.00
2011,05,27,18,04,15.00
2011,05,27,18,05,15.00
2011,05,27,18,06,15.00
2011,05,27,18,07,15.00
2011,05,27,18,08,15.00
2011,05,27,18,09,15.00
2011,05,27,18,10,15.00
2011,05,27,18,11,15.00
2011,05,27,18,12,15.00
2011,05,27,18,13,15.00
2011,05,27,18,14,15.00
2011,05,27,18,15,15.10
2011,05,27,18,16,15.00
2011,05,27,18,17,15.10
2011,05,27,18,18,15.00
2011,05,27,18,19,15.00
2011,05,27,18,20,15.00
2011,05,27,18,21,15.00
2011,05,27,18,22,15.00
2011,05,27,18,23,15.00
2011,05,27,18,24,15.00
2011,05,27,18,25,15.00
2011,05,27,18,26,15.00
2011,05,27,18,27,15.00
2011,05,27,18,28,15.00
2011,05,27,18,29,15.00
2011,05,27,18,30,15.00
2011,05,27,18,31,15.00
2011,05,27,18,32,15.00
2011,05,27,18,33,15.00
2011,05,27,18,34,15.00
2011,05,27,18,35,15.00
2011,05,27,18,36,15.00
2011,05,27,18,37,15.10
2011,05,27,18,38,15.10
2011,05,27,18,39,15.10
2011,05,27,18,40,15.20
2011,05,27,18,41,15.20
2011,05,27,18,42,15.20
2011,05,27,18,43,15.10
2011,05,27,18,44,15.10
2011,05,27,18,45,15.00
2011,05,27,18,46,15.00
2011,05,27,18,47,15.00
2011,05,27,18,48,15.00
2011,05,27,18,49,15.00
2011,05,27,18,50,14.90
2011,05,27,18,51,14.80
2011,05,27,18,52,14.70
2011,05,27,18,53,14.70
2011,05,27,18,54,14.70
2011,05,27,18,55,14.70
2011,05,27,18,56,14.70
2011,05,27,18,57,14.70
2011,05,27,18,58,14.80
2011,05,27,18,59,14.80
2011,05,27,19,00,14.80
2011,05,27,19,01,14.80
2011,05,27,19,02,14.80
2011,05,27,19,03,14.70
2011,05,27,19,04,14.70
2011,05,27,19,05,14.70
2011,05,27,19,06,14.60
2011,05,27,19,07,14.60
2011,05,27,19,08,14.50
2011,05,27,19,09,14.50
2011,05,27,19,10,14.40
2011,05,27,19,11,14.30
2011,05,27,19,12,14.20
2011,05,27,19,13,14.10
2011,05,27,19,14,14.10
2011,05,27,19,15,14.00
2011,05,27,19,16,13.90
2011,05,27,19,17,13.90
2011,05,27,19,18,13.90
2011,05,27,19,19,13.80
2011,05,27,19,20,13.80
2011,05,27,19,21,13.80
2011,05,27,19,22,13.80
2011,05,27,19,23,13.70
2011,05,27,19,24,13.70
2011,05,27,19,25,13.60
2011,05,27,19,26,13.60
2011,05,27,19,27,13.60
2011,05,27,19,28,13.50
2011,05,27,19,29,13.50
2011,05,27,19,30,13.50
2011,05,27,19,31,13.40
2011,05,27,19,32,13.40
2011,05,27,19,33,13.40
2011,05,27,19,34,13.40
2011,05,27,19,35,13.40
2011,05,27,19,36,13.30
2011,05,27,19,37,13.30
2011,05,27,19,38,13.30
2011,05,27,19,39,13.20
2011,05,27,19,40,13.20
2011,05,27,19,41,13.20
2011,05,27,19,42,13.20
2011,05,27,19,43,13.10
2011,05,27,19,44,13.10
2011,05,27,19,45,13.00
2011,05,27,19,46,13.00
2011,05,27,19,47,13.00
2011,05,27,19,48,12.90
2011,05,27,19,49,12.90
2011,05,27,19,50,12.90
2011,05,27,19,51,12.80
2011,05,27,19,52,12.80
2011,05,27,19,53,12.70
2011,05,27,19,54,12.70
2011,05,27,19,55,12.60
2011,05,27,19,56,12.50
2011,05,27,19,57,12.40
2011,05,27,19,58,12.30
2011,05,27,19,59,12.20
2011,05,27,20,00,12.10
2011,05,27,20,01,12.00
2011,05,27,20,02,11.90
2011,05,27,20,03,11.80
2011,05,27,20,04,11.70
2011,05,27,20,05,11.60
2011,05,27,20,06,11.50
2011,05,27,20,07,11.40
2011,05,27,20,08,11.40
2011,05,27,20,09,11.30
2011,05,27,20,10,11.30
2011,05,27,20,11,11.30
2011,05,27,20,12,11.20
2011,05,27,20,13,11.20
2011,05,27,20,14,11.20
2011,05,27,20,15,11.20
2011,05,27,20,16,11.10
2011,05,27,20,17,11.10
2011,05,27,20,18,11.10
2011,05,27,20,19,11.10
2011,05,27,20,20,11.10
2011,05,27,20,21,11.00
2011,05,27,20,22,11.00
2011,05,27,20,23,11.00
2011,05,27,20,24,10.90
2011,05,27,20,25,10.90
2011,05,27,20,26,10.90
2011,05,27,20,27,10.90
2011,05,27,20,28,10.90
2011,05,27,20,29,10.80
2011,05,27,20,30,10.80
2011,05,27,20,31,10.80
2011,05,27,20,32,10.80
2011,05,27,20,33,10.70
2011,05,27,20,34,10.60
2011,05,27,20,35,10.50
2011,05,27,20,36,10.40
2011,05,27,20,37,10.40
2011,05,27,20,38,10.40
2011,05,27,20,39,10.30
2011,05,27,20,40,10.30
2011,05,27,20,41,10.30
2011,05,27,20,42,10.30
2011,05,27,20,43,10.20
2011,05,27,20,44,10.20
2011,05,27,20,45,10.20
2011,05,27,20,46,10.20
2011,05,27,20,47,10.20
2011,05,27,20,48,10.20
2011,05,27,20,49,10.10
2011,05,27,20,50,10.10
2011,05,27,20,51,10.10
2011,05,27,20,52,10.00
2011,05,27,20,53,10.00
2011,05,27,20,54,9.90
2011,05,27,20,55,9.90
2011,05,27,20,56,9.90
2011,05,27,20,57,9.90
2011,05,27,20,58,9.80
2011,05,27,20,59,9.80
2011,05,27,21,00,9.80
2011,05,27,21,01,9.80
2011,05,27,21,02,9.80
2011,05,27,21,03,9.80
2011,05,27,21,04,9.70
2011,05,27,21,05,9.70
2011,05,27,21,06,9.70
2011,05,27,21,07,9.70
2011,05,27,21,08,9.70
2011,05,27,21,09,9.60
2011,05,27,21,10,9.60
2011,05,27,21,11,9.60
2011,05,27,21,12,9.50
2011,05,27,21,13,9.50
2011,05,27,21,14,9.40
2011,05,27,21,15,9.40
2011,05,27,21,16,9.40
2011,05,27,21,17,9.30
2011,05,27,21,18,9.30
2011,05,27,21,19,9.30
2011,05,27,21,20,9.20
2011,05,27,21,21,9.20
2011,05,27,21,22,9.10
2011,05,27,21,23,9.10
2011,05,27,21,24,9.00
2011,05,27,21,25,9.00
2011,05,27,21,26,8.90
2011,05,27,21,27,8.90
2011,05,27,21,28,8.80
2011,05,27,21,29,8.80
2011,05,27,21,30,8.80
2011,05,27,21,31,8.70
2011,05,27,21,32,8.70
2011,05,27,21,33,8.60
2011,05,27,21,34,8.60
2011,05,27,21,35,8.60
2011,05,27,21,36,8.60
2011,05,27,21,37,8.60
2011,05,27,21,38,8.50
2011,05,27,21,39,8.50
2011,05,27,21,40,8.40
2011,05,27,21,41,8.40
2011,05,27,21,42,8.40
2011,05,27,21,43,8.40
2011,05,27,21,44,8.40
2011,05,27,21,45,8.30
2011,05,27,21,46,8.30
2011,05,27,21,47,8.30
2011,05,27,21,48,8.30
2011,05,27,21,49,8.30
2011,05,27,21,50,8.30
2011,05,27,21,51,8.30
2011,05,27,21,52,8.30
2011,05,27,21,53,8.30
2011,05,27,21,54,8.20
2011,05,27,21,55,8.20
2011,05,27,21,56,8.20
2011,05,27,21,57,8.20
2011,05,27,21,58,8.20
2011,05,27,21,59,8.10
2011,05,27,22,00,8.10
2011,05,27,22,01,8.10
2011,05,27,22,02,8.00
2011,05,27,22,03,8.00
2011,05,27,22,04,8.00
2011,05,27,22,05,8.00
2011,05,27,22,06,7.90
2011,05,27,22,07,7.90
2011,05,27,22,08,7.90
2011,05,27,22,09,7.90
2011,05,27,22,10,7.90
2011,05,27,22,11,7.80
2011,05,27,22,12,7.80
2011,05,27,22,13,7.80
2011,05,27,22,14,7.80
2011,05,27,22,15,7.80
2011,05,27,22,16,7.80
2011,05,27,22,17,7.70
2011,05,27,22,18,7.70
2011,05,27,22,19,7.70
2011,05,27,22,20,7.70
2011,05,27,22,21,7.60
2011,05,27,22,22,7.60
2011,05,27,22,23,7.60
2011,05,27,22,24,7.60
2011,05,27,22,25,7.60
2011,05,27,22,26,7.50
2011,05,27,22,27,7.50
2011,05,27,22,28,7.50
2011,05,27,22,29,7.50
2011,05,27,22,30,7.40
2011,05,27,22,31,7.40
2011,05,27,22,32,7.40
2011,05,27,22,33,7.40
2011,05,27,22,34,7.40
2011,05,27,22,35,7.40
2011,05,27,22,36,7.40
2011,05,27,22,37,7.30
2011,05,27,22,38,7.30
2011,05,27,22,39,7.30
2011,05,27,22,40,7.30
2011,05,27,22,41,7.30
2011,05,27,22,42,7.30
2011,05,27,22,43,7.30
2011,05,27,22,44,7.30
2011,05,27,22,45,7.20
2011,05,27,22,46,7.20
2011,05,27,22,47,7.20
2011,05,27,22,48,7.20
2011,05,27,22,49,7.20
2011,05,27,22,50,7.20
2011,05,27,22,51,7.20
2011,05,27,22,52,7.20
2011,05,27,22,53,7.20
2011,05,27,22,54,7.20
2011,05,27,22,55,7.20
2011,05,27,22,56,7.20
2011,05,27,22,57,7.20
2011,05,27,22,58,7.20
2011,05,27,22,59,7.20
2011,05,27,23,00,7.20
2011,05,27,23,01,7.20
2011,05,27,23,02,7.20
2011,05,27,23,03,7.20
2011,05,27,23,04,7.20
2011,05,27,23,05,7.20
2011,05,27,23,06,7.20
2011,05,27,23,07,7.20
2011,05,27,23,08,7.20
2011,05,27,23,09,7.20
2011,05,27,23,10,7.20
2011,05,27,23,11,7.20
2011,05,27,23,12,7.20
2011,05,27,23,13,7.20
2011,05,27,23,14,7.20
2011,05,27,23,15,7.20
2011,05,27,23,16,7.20
2011,05,27,23,17,7.20
2011,05,27,23,18,7.20
2011,05,27,23,19,7.20
2011,05,27,23,20,7.20
2011,05,27,23,21,7.20
2011,05,27,23,22,7.30
2011,05,27,23,23,7.30
2011,05,27,23,24,7.30
2011,05,27,23,25,7.30
2011,05,27,23,26,7.30
2011,05,27,23,27,7.30
2011,05,27,23,28,7.30
2011,05,27,23,29,7.30
2011,05,27,23,30,7.40
2011,05,27,23,31,7.40
2011,05,27,23,32,7.40
2011,05,27,23,33,7.40
2011,05,27,23,34,7.50
2011,05,27,23,35,7.50
2011,05,27,23,36,7.50
2011,05,27,23,37,7.60
2011,05,27,23,38,7.60
2011,05,27,23,39,7.60
2011,05,27,23,40,7.60
2011,05,27,23,41,7.60
2011,05,27,23,42,7.70
2011,05,27,23,43,7.70
2011,05,27,23,44,7.70
2011,05,27,23,45,7.70
2011,05,27,23,46,7.80
2011,05,27,23,47,7.80
2011,05,27,23,48,7.80
2011,05,27,23,49,7.80
2011,05,27,23,50,7.90
2011,05,27,23,51,7.90
2011,05,27,23,52,7.90
2011,05,27,23,53,7.90
2011,05,27,23,54,7.90
2011,05,27,23,55,7.90
2011,05,27,23,56,8.00
2011,05,27,23,57,8.00
2011,05,27,23,58,8.00
2011,05,27,23,59,8.00
